N7DTY Weather Reports


time (UTC)temp
C
wind
direction
speed
KPH
gust
KPH
rain 1hr
cm
rain 24hr
cm
rain mn
cm
humidity
%
barometer
mb
20260505101520 12 170 8.0 19.3 0.00 0.00 0.00 83 1011.8
20260505100018 12 179 8.0 20.9 0.00 0.00 0.00 83 1011.7
20260505094515 12 178 9.7 22.5 0.00 0.00 0.00 81 1011.7
20260505093013 13 213 6.4 20.9 0.00 0.00 0.00 79 1011.7
20260505091510 13 200 4.8 20.9 0.00 0.00 0.00 77 1011.4
20260505090009 14 190 6.4 19.3 0.00 0.00 0.00 73 1011.2
20260505084507 14 178 6.4 22.5 0.00 0.00 0.00 70 1011.2
20260505083005 13 171 3.2 12.9 0.00 0.00 0.00 74 1011.0
20260505081503 13 186 3.2 11.3 0.00 0.00 0.00 78 1010.9
20260505074610 13 173 4.8 25.7 0.00 0.00 0.00 79 1010.5
20260505073056 13 184 4.8 16.1 0.00 0.00 0.00 77 1010.4
20260505071553 13 187 8.0 19.3 0.00 0.00 0.00 78 1010.2
20260505070052 13 216 4.8 14.5 0.00 0.00 0.00 77 1009.9
20260505064548 14 227 4.8 17.7 0.00 0.00 0.00 76 1009.9
20260505063055 14 161 6.4 20.9 0.00 0.00 0.00 76 1009.8
20260505061615 14 192 4.8 12.9 0.00 0.00 0.00 76 1009.7
20260505060052 14 225 3.2 12.9 0.00 0.00 0.00 77 1009.6
20260505054559 15 163 3.2 16.1 0.00 0.00 0.00 76 1009.4
20260505053046 15 173 4.8 16.1 0.00 0.00 0.00 76 1009.4
20260505051546 15 174 4.8 17.7 0.00 0.00 0.00 77 1009.2
20260505041543 15 201 6.4 16.1 0.00 0.00 0.00 79 1008.8
20260505040043 15 311 0.0 4.8 0.00 0.00 0.00 80 1008.5
20260505034545 16 185 0.0 4.8 0.00 0.00 0.00 77 1008.4
20260505033049 16 13 0.0 6.4 0.00 0.00 0.00 76 1008.3
20260505031541 17 291 0.0 4.8 0.00 0.00 0.00 72 1008.1
20260505030043 18 180 1.6 3.2 0.00 0.00 0.00 65 1008.0
20260505024603 18 235 3.2 9.7 0.00 0.00 0.00 61 1008.1
20260505023041 19 182 3.2 11.3 0.00 0.00 0.00 55 1008.1
20260505021549 19 173 3.2 14.5 0.00 0.00 0.00 54 1008.3
20260505020044 19 145 3.2 11.3 0.00 0.00 0.00 55 1008.3
20260505014535 19 146 3.2 12.9 0.00 0.00 0.00 57 1008.4
20260505013033 20 108 4.8 14.5 0.00 0.00 0.00 55 1008.5
20260505011547 19 269 0.0 4.8 0.00 0.00 0.00 59 1008.6
20260505010031 20 205 4.8 14.5 0.00 0.00 0.00 55 1008.7
20260505004541 20 188 4.8 12.9 0.00 0.00 0.00 58 1008.6
20260505003030 20 202 1.6 12.9 0.00 0.00 0.00 59 1008.6
20260505001532 21 232 4.8 14.5 0.00 0.00 0.00 54 1008.7
20260505000028 21 218 3.2 11.3 0.00 0.00 0.00 55 1008.9
20260504234528 21 173 1.6 11.3 0.00 0.00 0.00 53 1008.9
20260504233028 22 200 4.8 12.9 0.00 0.00 0.00 48 1009.0
20260504231527 22 178 4.8 12.9 0.00 0.00 0.00 48 1009.1
20260504230027 22 182 4.8 9.7 0.00 0.00 0.00 48 1009.4
20260504224525 22 167 3.2 9.7 0.00 0.00 0.00 48 1009.3
20260504223031 22 169 3.2 11.3 0.00 0.00 0.00 53 1009.4
20260504221525 22 209 3.2 9.7 0.00 0.00 0.00 53 1009.6
20260504220023 22 217 3.2 11.3 0.00 0.00 0.00 54 1009.7
20260504214519 21 197 3.2 9.7 0.00 0.00 0.00 58 1009.6
20260504213021 21 179 3.2 8.0 0.00 0.00 0.00 58 1009.6
20260504211519 21 221 4.8 11.3 0.00 0.00 0.00 58 1009.8
20260504210017 21 158 1.6 8.0 0.00 0.00 0.00 57 1009.9
20260504204518 21 148 1.6 11.3 0.00 0.00 0.00 57 1010.0
20260504203017 20 194 3.2 12.9 0.00 0.00 0.00 59 1010.1
20260504201515 21 193 4.8 12.9 0.00 0.00 0.00 60 1010.1
20260504200014 21 172 4.8 9.7 0.00 0.00 0.00 62 1010.3
20260504194509 19 169 3.2 11.3 0.00 0.00 0.00 62 1010.3
20260504193007 19 168 6.4 11.3 0.00 0.00 0.00 60 1010.3
20260504191512 20 169 1.6 9.7 0.00 0.00 0.00 65 1010.2
20260504190006 20 223 0.0 4.8 0.00 0.00 0.00 67 1010.2
20260504184503 20 199 1.6 11.3 0.00 0.00 0.00 68 1010.1
20260504183003 20 165 1.6 6.4 0.00 0.00 0.00 67 1010.2
20260504181609 18 187 1.6 8.0 0.00 0.00 0.00 70 1010.3
20260504180056 18 238 1.6 8.0 0.00 0.00 0.00 71 1010.2
20260504174552 17 192 1.6 9.7 0.00 0.00 0.00 71 1010.1
20260504173055 17 238 1.6 4.8 0.00 0.00 0.00 71 1010.2
20260504171549 17 178 1.6 4.8 0.00 0.00 0.00 70 1010.2